Flag for Canada Weather past 2 weeks in Labrador City, Newfoundland and Labrador, Canada

Now
-26 °F

Snow flurries. Passing clouds.


Feels Like: -52 °F
Forecast: -36 / -25 °F
Wind: 15 mph from Northwest

Location: Wabush Lake

Current Time: Feb 1, 2015 at 10:40:18 PM

Latest Report: Feb 1, 2015 at 10:00 PM


Visibility: 6 mi

Pressure: 29.87 "Hg

Humidity: 61%

Dew point: -35 °F

Location of Labrador CityLocation

Historic Weather in Labrador City — Graph

°F

Labrador City temperature yesterday

Maximum temperature yesterday: -6 °F (at 12:03 AM)
Minimum temperature yesterday: -18 °F (at 8:00 AM)
Average temperature yesterday: -12 °F

Past Weeks' High & Low Weather Summary

 TemperatureHumidityPressure
High16 °F (Jan 30, 2:00 PM)92% (Jan 18, 9:00 PM)30.62 "Hg (Jan 18, 9:00 PM)
Low-45 °F (Jan 22, 7:00 AM)49% (Jan 28, 2:00 PM)29.03 "Hg (Jan 25, 9:00 AM)
Average-9 °F76%29.91 "Hg
* Reported Jan 17 9:00 PM — Feb 1 9:00 PM, Labrador City, Weather by CustomWeather, © 2014

Note: Actual official high and low records may vary slightly from our data, if they occured in-between our weather recording intervals... More about our weather records

Advertising

Labrador City weather history for previous 24 hours

 ConditionsComfort  
Time TempWeatherWind HumidityBarometerVisibility
9:00 PM
Feb 1
-24 °FSnow flurries. Passing clouds.21 mph61%29.86 "Hg6 mi
8:00 PM-22 °FSnow flurries. Passing clouds.17 mph68%29.85 "Hg4 mi
7:00 PM-20 °FLight snow. Passing clouds.21 mph68%29.84 "Hg3 mi
6:00 PM-18 °FLight snow. Partly sunny.14 mph69%29.82 "Hg3 mi
5:00 PM-17 °FLight snow. Overcast.17 mph69%29.80 "Hg3 mi
4:00 PM-13 °FLight snow. Overcast.16 mph69%29.76 "Hg4 mi
3:00 PM-11 °FLight snow. Broken clouds.16 mph63%29.75 "Hg5 mi
2:00 PM-11 °FLight snow. Overcast.24 mph63%29.73 "Hg3 mi
1:00 PM-11 °FLight snow. Overcast.22 mph63%29.73 "Hg4 mi
12:00 PM-11 °FLight snow. Overcast.15 mph70%29.76 "Hg4 mi
11:45 AM-11 °FLight snow. Overcast.20 mph63%29.76 "Hg3 mi
11:00 AM-11 °FLight snow. Mostly cloudy.18 mph70%29.77 "Hg1 mi
10:48 AM-11 °FLight snow. Overcast.18 mph70%29.77 "Hg3 mi
10:00 AM-11 °FLight snow. Mostly cloudy.14 mph70%29.78 "Hg3 mi
9:00 AM-11 °FLight snow. Mostly cloudy.13 mph70%29.78 "Hg6 mi
8:00 AM-11 °FLight snow. Overcast.14 mph70%29.78 "Hg4 mi
7:00 AM-9 °FLight snow. Overcast.16 mph70%29.76 "Hg5 mi
6:00 AM-9 °FLight snow. Overcast.15 mph77%29.77 "Hg6 mi
5:00 AM-9 °FLight snow. Mostly cloudy.9 mph77%29.80 "Hg9 mi
4:00 AM-9 °FLight snow. Mostly cloudy.9 mph77%29.80 "Hg6 mi
3:00 AM-9 °FLight snow. Mostly cloudy.13 mph77%29.82 "Hg9 mi
2:00 AM-9 °FOvercast.12 mph77%29.83 "Hg9 mi
1:00 AM-9 °FOvercast.10 mph77%29.86 "Hg9 mi
12:55 AM-9 °FOvercast.9 mph77%29.87 "Hg9 mi
12:00 AM-11 °FLight snow. Overcast.14 mph76%29.89 "Hg9 mi
11:00 PM
Jan 31
-11 °FLight snow. Overcast.9 mph70%29.93 "Hg9 mi
10:00 PM-13 °FLight snow. Overcast.10 mph76%29.96 "Hg15 mi
Weather by CustomWeather, © 2014

See weather overviewHow to use our weather pages